Погода в Ольшанах

Россия / Московская область     55°03′30″N   39°23′03″E
темп.,
°C
ветер,
м/с
пор.,
м/с
влажн.,
%
обл.,
%
осадки,
мм/ч
давл.,
гПа
погр.,
м
8 мая, сб
сб800:00+6ююв257154 0.0 101484
03:00+6юв31078100 0.0 1014203
06:00+8юв41373100 0.0 1012419
09:00+10ююв51280100 0.2 10121125
12:00+9юв61490100 3.1 10101472
15:00+10ююв71582100 3.9 10071256
18:00+10ююв61687100 2.0 10041296
21:00+10ююв51296100 7.2 1003952
9 мая, вс
вс900:00+11ю51295100 1.0 1001915
03:00+8ююз51196100 1.1 1003505
06:00+7зсз4895100 0.0 1005529
09:00+3сз51097100 0.1 1008683
12:00+5сз51091100 0.3 1012967
15:00+7сз5108093 0.5 10141254
18:00+9ссз5126922 0.3 10171659
21:00+5сз22853 0.3 102021
10 мая, пн
пн1000:00+3зсз38885 0.0 1022141
03:00+2ссз310880 0.0 1024212
06:00+4ссз310800 0.0 1027273
09:00+10с47530 0.0 10281103
12:00+13ссв47405 0.0 10281634
15:00+14ссв57374 0.0 10281689
18:00+13ссв47510 0.0 1028827
21:00+7ссв39751 0.0 1029150
11 мая, вт
вт1100:00+5св27805 0.0 1030142
03:00+4св310805 0.0 1030174
06:00+6св311735 0.0 1031295
09:00+12всв59540 0.0 1030742
12:00+17всв57411 0.0 10291084
15:00+19всв56447 0.0 10271068
18:00+17всв3859100 0.0 1028519
21:00+11всв36845 0.0 1028100
12 мая, ср
ср1200:00+10всв310885 0.0 1027228
03:00+9всв311915 0.0 1026251
06:00+11всв414855 0.0 1026421
09:00+17вюв47717 0.0 1026635
12:00+16всв3780100 0.0 1025311
15:00+16в2984100 0.2 1024398
18:00+19вюв3975100 0.1 1023765
21:00+16в4138934 1.8 1022487